Regional Weather Roundup
Issued by NWS Grand Forks, ND

Home | Current Version | Previous Version | Text Only | Print | Product List | Glossary Off
Versions: 1 2 3 4 5 6 7 8 9 10 11 12 13 14 15 16 17 18 19 20 21 22 23 24 25 26 27 28 29 30 31 32 33 34 35 36 37 38 39 40 41 42 43 44 45 46 47 48 49 50

000
ASUS43 KFGF 280631
RWRFGF
PRAIRIE TO PINES  WEATHER ROUNDUP
NATIONAL WEATHER SERVICE EASTERN NORTH DAKOTA/GRAND FORKS ND
100 AM CDT MON JUL 28 2014

 **SATELLITE DATA USED TO AUGMENT SKY COVER AT AUTOMATED STATIONS**
 *****  WEATHER ACROSS EASTERN NORTH DAKOTA  *****

CITY           SKY/WX    TMP DP  RH WIND       PRES   REMARKS
GRAND FORKS    CLOUDY    61  56  83 NW7         N/A
6HR MIN TEMP:  61; 6HR MAX TEMP:  68;

GRAND FRKS AFB CLOUDY    60  57  90 NW7       30.23S
GRAND FRKS NWS   N/A     61 N/A N/A N2          N/A
DEVILS LAKE    CLOUDY    57  52  82 NW6       30.26R
6HR MIN TEMP:  57; 6HR MAX TEMP:  64;

FARGO          CLOUDY    59  56  89 W6        30.21S
WAHPETON ARPT  CLOUDY    59  54  82 N5        30.22R
$$

 ***** WEATHER ACROSS CENTRAL AND WESTERN NORTH DAKOTA  *****

CITY           SKY/WX    TMP DP  RH WIND       PRES   REMARKS
BISMARCK       CLEAR     56  52  86 CALM      30.31R
6HR MIN TEMP:  52; 6HR MAX TEMP:  69;

MINOT          CLEAR     57  52  83 CALM      30.29R
6HR MIN TEMP:  54; 6HR MAX TEMP:  68;

JAMESTOWN      CLOUDY    60  55  83 NW7       30.26R
6HR MIN TEMP:  59; 6HR MAX TEMP:  67;

MINOT AFB      CLEAR     51  51  99 W6        30.28S
GARRISON         N/A     52  50  93 NW3       30.30R
WILLISTON      CLEAR     55  51  86 CALM      30.30R
6HR MIN TEMP:  55; 6HR MAX TEMP:  74;

DICKINSON      CLEAR     52  48  86 SE5       30.32R
6HR MIN TEMP:  50; 6HR MAX TEMP:  71;

HETTINGER      CLEAR     52  49  89 E3        30.34R
6HR MIN TEMP:  52; 6HR MAX TEMP:  72;

$$

 *****  OTHER AIRPORT OBSERVATIONS IN OUR AREA  *****

CITY           SKY/WX    TMP DP  RH WIND       PRES   REMARKS
WALHALLA         N/A     57  57 100 W3          N/A
GRAFTON AIRPOR FAIR      57  55  94 NW7       30.23R
VALLEY CITY AR CLOUDY    59  59 100 NW5       30.26R
CANDO          CLOUDY    55  54  94 W3        30.28R
CAVALIER APRT  FAIR      54  52  94 NW7       30.23S
GWINNER        CLOUDY    61  59  94 NW6       30.26R
SHEYENNE NWR     N/A     61  57  86 CALM      29.95S
ROLLA          CLOUDY    55  55 100 NW6       30.29S
 ***** THE ABOVE OBSERVATIONS ARE NON NWS ARE NOT QUALITY
       CONTROLLED AND MAY MIS-REPORT RAIN FOR SNOW...
$$

  *****  WEATHER ACROSS NORTHERN MINNESOTA  *****

CITY           SKY/WX    TMP DP  RH WIND       PRES   REMARKS
FLAG ISLAND    CLEAR     64  57  77 N9        30.17S
WARROAD        MOCLDY    55  52  88 NW5       30.20S
ROSEAU         CLOUDY    57  54  88 NW5       30.20S
HALLOCK        CLEAR     55  54  94 NW3       30.22S
THF RVR FALLS  CLOUDY    61  55  82 NW7       30.21S
6HR MIN TEMP:  61; 6HR MAX TEMP:  64;

BAUDETTE       CLOUDY    57  53  86 VRB3      30.19R
6HR MIN TEMP:  55; 6HR MAX TEMP:  68;

WASKISH        CLOUDY    61  55  82 CALM      30.18S
CROOKSTON      CLOUDY    61  57  88 N6        30.22R
$$
  *****  WEATHER ACROSS CENTRAL AND WEST MINNESOTA  *****

CITY           SKY/WX    TMP DP  RH WIND       PRES   REMARKS
FOSSTON        CLOUDY    57  55  94 NW6       30.21S
BEMIDJI        CLOUDY    58  55  87 NW6       30.19S
PARK RAPIDS    CLOUDY    61  56  83 N8        30.19S
6HR MIN TEMP:  61; 6HR MAX TEMP:  67; 6HR PCP:  0.02;

ELBOW LAKE     CLOUDY    62  58  88 N7        30.20S
WADENA         CLOUDY    59  57  94 NW5       30.19R
DETROIT LAKES  CLOUDY    61  57  88 NW7       30.22R
MOORHEAD       CLOUDY    59  59 100 NW3       30.22S
FERGUS FALLS   CLOUDY    61  55  82 N7        30.21R
MORRIS MN      CLOUDY    61  59  94 NW3       30.19S
STAPLES        CLOUDY    61  57  88 NW3       30.18S
$$
  *****  WEATHER ELSEWHERE ACROSS MINNESOTA  *****

CITY           SKY/WX    TMP DP  RH WIND       PRES   REMARKS
DULUTH         MOCLDY    56  53  90 NW7       30.12R
6HR MIN TEMP:  56; 6HR MAX TEMP:  61;

INTRNTL FALLS  CLEAR     50  48  93 NW3       30.16R
6HR MIN TEMP:  48; 6HR MAX TEMP:  70;

ELY            CLOUDY    52  50  93 CALM      30.13S
CLOQUET        CLEAR     55  52  88 NW6       30.13S
WHEATON        MOCLDY    57  55  94 NW5       30.23R
BRAINERD       CLOUDY    63  57  81 N6        30.17S
6HR MIN TEMP:  63; 6HR MAX TEMP:  66;

HIBBING        CLOUDY    57  52  83 N5        30.14S
6HR MIN TEMP:  52; 6HR MAX TEMP:  68;

ALEXANDRIA     CLOUDY    62  59  90 N3        30.21R
6HR MIN TEMP:  61; 6HR MAX TEMP:  69; 6HR PCP:  0.01;

SAINT CLOUD    CLOUDY    64  58  80 NW3       30.15S
6HR MIN TEMP:  63; 6HR MAX TEMP:  72;

MINNEAPOLIS    CLOUDY    65  58  78 N6        30.13S
6HR MIN TEMP:  65; 6HR MAX TEMP:  71;

$$

  *****  WEATHER ACROSS SOUTH DAKOTA  *****

CITY           SKY/WX    TMP DP  RH WIND       PRES   REMARKS
SIOUX FALLS    CLEAR     59  56  89 NW7       30.23R
6HR MIN TEMP:  59; 6HR MAX TEMP:  69;

BROOKINGS      NOT AVBL
WATERTOWN      CLEAR     54  52  93 N6        30.23S
6HR MIN TEMP:  54; 6HR MAX TEMP:  64;

HURON          CLEAR     53  51  93 NW6       30.25S
6HR MIN TEMP:  52; 6HR MAX TEMP:  70;

SISSETON         N/A     56  55  97 N7        30.22R
ABERDEEN       CLEAR     54  52  93 NW8       30.26R
6HR MIN TEMP:  53; 6HR MAX TEMP:  66;

MITCHELL       CLEAR     57  54  89 NW5       30.26S
PIERRE         CLEAR     56  53  90 CALM      30.29R
6HR MIN TEMP:  54; 6HR MAX TEMP:  76;

MOBRIDGE       CLEAR     55  52  89 NE7       30.27S
RAPID CITY     CLEAR     57  52  83 E5        30.35R
6HR MIN TEMP:  57; 6HR MAX TEMP:  80;

$$

  *****  SOME WEATHER IN NEARBY STATES *****

CITY           SKY/WX    TMP DP  RH WIND       PRES   REMARKS
GLASGOW MT     CLEAR     63  53  70 E13       30.25R
6HR MIN TEMP:  63; 6HR MAX TEMP:  84;

GREAT FALLS MT CLEAR     71  39  31 E13       30.20F
6HR MIN TEMP:  68; 6HR MAX TEMP:  89;

CHEYENNE WY    PTCLDY    64  46  52 SE12      30.42S
6HR MIN TEMP:  63; 6HR MAX TEMP:  77;

SCOTTSBLUFF NE CLEAR     67  50  54 E10       30.32R
6HR MIN TEMP:  67; 6HR MAX TEMP:  86;

OMAHA NE       CLEAR     64  55  72 NW9       30.20R
6HR MIN TEMP:  64; 6HR MAX TEMP:  79;

DES MOINES IA  CLEAR     66  57  72 N12G21    30.10R
6HR MIN TEMP:  66; 6HR MAX TEMP:  75;

DAVENPORT IA   PTCLDY    63  60  90 N9        30.01R
6HR MIN TEMP:  62; 6HR MAX TEMP:  73;

CHICAGO IL     CLOUDY    66  51  58 N16G26    29.92R
6HR MIN TEMP:  65; 6HR MAX TEMP:  75; 6HR PCP:  0.02;

EAU CLAIRE WI  CLOUDY    57  53  86 NW6       30.10R
6HR MIN TEMP:  55; 6HR MAX TEMP:  68;

LA CROSSE WI   CLEAR     59  54  83 N7        30.08R
6HR MIN TEMP:  59; 6HR MAX TEMP:  76;

$$

  *****  SOME NATIONAL WEATHER *****

CITY           SKY/WX    TMP DP  RH WIND       PRES   REMARKS
LA GUARDIA NY  TSTM      77  72  84 S6        29.61F
6HR MIN TEMP:  77; 6HR MAX TEMP:  85; 6HR PCP:  0.07;

RALEIGH NC     CLOUDY    78  70  76 SW8       29.75F
6HR MIN TEMP:  78; 6HR MAX TEMP:  84;

ATLANTA GA     CLOUDY    80  72  76 W8        29.95F
6HR MIN TEMP:  80; 6HR MAX TEMP:  87;

NEW ORLEANS LA PTCLDY    81  77  88 SW9       30.06F
6HR MIN TEMP:  81; 6HR MAX TEMP:  87;

OKLAHOMA CITY  PTCLDY    77  62  59 NE7       30.13S
6HR MIN TEMP:  77; 6HR MAX TEMP:  90;

ALBUQUERQUE NM CLOUDY    78  55  44 E15       30.33R
6HR MIN TEMP:  74; 6HR MAX TEMP:  79;

SALT LAKE CITY CLOUDY    83  39  21 SE7       30.10S
6HR MIN TEMP:  82; 6HR MAX TEMP:  98;

LOS ANGELES CA MOCLDY    68  63  84 W10       29.99R
6HR MIN TEMP:  68; 6HR MAX TEMP:  73;

BOISE ID       MOCLDY    81  45  28 CALM      29.99S


USA.gov is the U.S. government's official web portal to all federal, state and local government web resources and services.